Regional Weather Roundup
Issued by NWS State College, PA

Home | Current Version | Previous Version | Text Only | Print | Product List | Glossary On
Versions: 1 2 3 4 5 6 7 8 9 10 11 12 13 14 15 16 17 18 19 20 21 22 23 24 25 26 27 28 29 30 31 32 33 34 35 36 37 38 39 40 41 42 43 44 45 46 47 48 49 50
000
ASUS41 KCTP 261910
RWRCTP

REGIONAL WEATHER ROUNDUP
NATIONAL WEATHER SERVICE STATE COLLEGE PA
300 PM EDT TUE SEP 26 2017

Note: "fair" indicates few or no clouds below 12,000 feet with no
significant weather and/or obstructions to visibility.

* = STATION THAT DOES NOT REPORT PRECIPITATION /E.G. RAIN...SNOW...ETC/
    THUNDER OR FOG.

PAZ002>004-007>009-013>016-020>023-029>032-262000-
WESTERN PENNSYLVANIA

CITY           SKY/WX    TMP DP  RH WIND       PRES   REMARKS
ERIE           SUNNY     85  64  49 NW7       29.99F
MEADVILLE      MOSUNNY   87  65  47 SW5       30.03F
FRANKLIN*      MOSUNNY   85  64  49 VRB3      30.04F
NEW CASTLE     FAIR      89  64  43 VRB3      30.01F
BEAVER COUNTY  MOSUNNY   91  63  38 S5        30.02F
BUTLER*        MOSUNNY   87  66  49 NW5       30.02F
PITTSBURGH INT MOSUNNY   88  63  43 E7        30.01F
PITTSBURGH     MOSUNNY   86  62  44 VRB3      30.01F
INDIANA*       NOT AVBL
LATROBE        MOSUNNY   86  64  48 E9        30.02F
WASHINGTON CO* MOSUNNY   84  63  48 E3        30.02F
$$

PAZ004>006-010>012-017>019-024>028-033>037-041-042-045-046-049>053-262000-
CENTRAL PENNSYLVANIA

CITY           SKY/WX    TMP DP  RH WIND       PRES   REMARKS
BRADFORD       SUNNY     84  62  47 SW6       30.06F
DUBOIS         MOSUNNY   83  62  49 N5        30.04F
CLEARFIELD     SUNNY     85  62  46 CALM      30.04F
JOHNSTOWN      MOSUNNY   82  62  50 VRB5      30.07F
ALTOONA        MOSUNNY   85  65  51 N8        30.04F
STATE COLLEGE  MOSUNNY   84  66  54 CALM      30.02F
WILLIAMSPORT   SUNNY     89  69  51 CALM      29.97F
SELINSGROVE    SUNNY     87  70  56 S6        29.98F
FT INDIANTOWN  PTSUNNY   86  68  55 NE5       29.98F
CAPITAL CITY   MOSUNNY   87  66  49 E8        29.97F
HARRISBURG     MOSUNNY   85  68  56 E6        29.97F
YORK           SUNNY     85  69  58 NE10      29.99F
$$

PAZ038>040-043-044-047-048-054-055-060>062-067>071-262000-
EASTERN PENNSYLVANIA

CITY           SKY/WX    TMP DP  RH WIND       PRES   REMARKS
SCRANTON       MOSUNNY   86  65  49 CALM      30.00F
MOUNT POCONO   SUNNY     81  65  58 VRB6      30.06F
ALLENTOWN      SUNNY     87  67  51 VRB6      29.99F
QUAKERTOWN*    PTCLDY    82  68  61 E7        30.01F
READING        PTSUNNY   86  70  58 VRB3      29.97F
LANCASTER      MOSUNNY   83  70  64 E6        29.99F
COATESVILLE    PTCLDY    82  64  54 CALM      30.01F
POTTSTOWN      NOT AVBL
BLUE BELL      PTSUNNY   81  66  61 NE5       30.00F
DOYLESTOWN     PTSUNNY   84  66  54 NE8       29.99F
WILLOW GROVE   NOT AVBL
NORTH PHILA    PTSUNNY   84  67  56 E9        30.00F
PHILADELPHIA   PTSUNNY   84  67  56 NE8       29.97F
$$




USA.gov is the U.S. government's official web portal to all federal, state and local government web resources and services.